Lapse_Rate
7.9 7.7 7.8 7.8 7.6 7.5 7.4 7.3 7.0 6.8 6.7 6.8 6.5 6.5 6.3 6.1 6.2 6.0 5.9 5.7 5.7 5.6 5.6 5.5 5.8 6.2 6.3 6.3 6.1 6.2 6.1 6.0 6.0 5.8 5.6 5.6 5.6 5.3 5.1 5.2 5.4 5.4 5.6
7.8 7.8 7.7 7.8 7.8 7.6 7.5 7.5 7.4 7.3 7.2 7.1 6.9 6.9 6.6 6.4 6.3 6.2 6.3 6.0 5.7 5.5 5.4 5.2 5.2 5.7 6.2 6.3 6.1 6.2 6.1 5.9 5.8 6.0 5.7 5.5 5.3 5.3 5.3 5.4 5.5 5.6 5.6
7.3 7.7 7.7 7.7 7.9 7.9 7.8 7.5 7.4 7.4 7.4 7.3 7.2 7.0 6.8 6.7 6.5 6.2 6.2 6.2 5.8 5.5 5.3 5.0 5.1 5.2 5.7 6.1 6.1 5.8 5.9 5.9 5.7 5.6 5.3 5.4 5.5 5.5 5.6 5.7 5.4 5.4 5.2
7.9 7.7 7.6 7.5 7.6 7.5 7.5 7.6 7.6 7.4 7.3 7.3 7.2 7.2 7.2 7.0 6.6 6.5 6.6 6.5 6.5 6.0 5.4 5.2 5.1 5.2 5.5 5.8 5.9 6.1 6.1 6.1 5.7 5.5 5.5 5.6 5.5 5.5 5.5 5.6 5.5 5.3 5.2
8.2 7.9 7.7 7.5 7.3 7.2 7.2 7.4 7.4 7.5 7.4 7.3 7.2 7.1 7.2 7.3 6.9 6.9 6.7 6.7 6.4 6.4 6.1 5.7 5.5 5.4 5.6 5.8 5.9 6.0 6.2 6.1 5.6 5.6 5.7 5.7 5.3 5.2 5.3 5.3 5.3 5.3 5.4
8.4 8.3 8.0 7.6 7.4 7.2 7.2 7.3 7.2 7.3 7.3 7.3 7.3 7.0 7.2 7.2 6.9 6.9 6.8 6.6 6.5 6.4 6.1 6.1 5.9 5.7 5.7 5.7 5.9 6.0 6.1 6.0 5.9 5.8 5.7 5.3 5.3 5.3 5.3 5.3 5.2 5.3 5.3
8.0 8.2 8.1 7.9 7.6 7.3 7.0 7.0 7.2 7.1 7.2 7.2 7.5 7.5 7.2 7.2 6.8 6.8 6.8 6.7 6.6 6.6 6.5 6.2 6.2 5.9 5.6 5.7 5.8 5.7 5.8 6.0 6.0 5.8 5.7 5.2 5.2 5.4 5.3 5.4 5.3 5.2 5.1
7.6 7.8 7.9 8.0 7.8 7.6 7.5 7.4 7.4 7.3 7.1 7.2 7.4 7.1 6.8 7.1 6.9 6.1 6.2 6.8 6.7 6.5 6.8 6.4 5.8 6.1 5.9 5.8 5.9 5.6 5.5 5.6 5.8 5.8 5.8 5.4 5.4 5.4 5.4 5.2 5.2 5.2 5.0
7.1 7.2 7.3 7.5 7.6 7.8 8.0 7.9 7.6 7.3 7.2 7.3 7.1 7.2 7.3 7.2 6.9 6.9 6.7 6.8 6.5 6.4 6.6 6.5 6.1 5.7 5.8 5.7 5.7 5.8 5.5 5.4 5.8 5.8 5.5 5.2 5.4 5.4 5.1 5.1 4.9 4.9 5.0
6.6 6.4 6.7 6.8 6.9 7.0 7.0 7.2 7.3 7.2 7.2 7.3 7.2 7.1 7.0 7.1 6.9 6.7 6.6 6.7 6.6 6.4 6.4 6.5 6.7 6.4 5.9 5.6 5.7 5.6 5.6 5.4 5.5 5.7 5.6 5.4 5.5 5.1 5.0 4.8 4.5 4.5 4.7
6.5 6.3 6.4 6.4 6.4 6.5 6.7 6.8 6.8 6.8 6.7 6.7 6.7 6.7 6.8 6.9 6.8 6.7 6.7 6.6 6.4 6.1 6.4 6.3 6.1 6.3 5.8 5.6 5.5 5.5 5.5 5.7 5.5 5.2 5.3 5.4 5.3 5.1 4.8 4.8 4.7 4.7 4.6
6.3 6.4 6.5 6.5 6.6 6.6 6.5 6.5 6.6 6.7 6.7 6.7 6.6 6.7 6.7 6.6 6.5 6.3 6.5 6.3 6.3 5.6 6.2 5.6 5.4 5.6 6.0 5.6 5.5 5.3 5.3 5.5 5.5 5.1 5.0 5.3 5.1 5.0 4.7 4.4 4.7 4.6 4.6
6.2 6.6 6.7 6.8 6.8 6.7 6.6 6.5 6.4 6.3 6.4 6.5 6.5 6.5 6.6 6.6 6.5 6.2 6.2 6.3 6.4 6.3 6.1 5.6 5.3 4.8 4.8 5.4 5.8 5.4 5.1 5.4 5.5 5.1 4.8 5.0 5.2 5.2 4.9 4.4 4.4 4.5 4.5
6.5 6.6 6.6 6.8 6.8 6.8 6.8 6.7 6.6 6.6 6.3 6.3 6.4 6.5 6.5 6.5 6.3 6.1 6.1 6.0 6.0 5.9 5.9 5.3 5.0 4.6 5.3 5.7 5.8 5.6 5.4 5.5 5.5 5.4 5.0 4.9 5.1 5.2 4.7 4.5 4.4 4.5 4.8
6.7 6.6 6.5 6.5 6.5 6.6 6.6 6.5 6.5 6.4 6.3 6.2 6.2 6.1 6.0 6.1 6.2 6.0 5.9 5.7 5.8 5.5 5.3 5.5 5.4 5.6 5.5 5.7 6.2 5.8 5.4 5.7 5.7 5.4 5.2 5.0 5.2 5.1 4.9 4.4 4.2 4.7 4.7
6.2 6.4 6.2 6.1 6.1 6.0 6.1 6.2 6.2 6.1 6.0 5.9 5.9 6.0 6.2 6.2 6.1 6.0 5.8 5.8 5.6 5.4 5.1 5.4 5.8 5.8 6.0 5.9 5.9 5.8 5.7 5.9 5.8 5.7 5.3 5.1 5.0 4.9 4.9 4.8 3.6 4.4 3.6
6.0 6.1 6.2 6.0 5.8 5.9 5.9 5.7 5.7 5.7 5.7 5.5 5.5 5.5 5.9 6.1 6.3 6.4 6.1 5.8 5.4 5.4 5.5 5.2 5.7 6.0 5.9 5.7 5.6 5.6 5.7 5.6 5.7 5.5 5.2 4.7 4.8 4.9 4.9 4.5 3.5 3.5 3.3
5.7 5.8 6.0 5.9 5.7 5.7 5.8 5.6 5.5 5.3 5.1 5.4 5.6 5.8 6.2 6.2 6.2 6.8 6.3 5.9 5.6 5.5 5.7 5.8 5.9 6.1 5.9 5.7 5.6 5.6 5.4 5.0 5.9 5.6 5.3 4.8 4.8 4.8 4.5 3.9 3.6 3.3 3.6
5.9 6.0 5.8 5.8 5.8 5.8 6.0 5.7 5.4 5.5 5.7 5.4 5.5 5.8 6.2 6.1 6.2 7.1 6.7 6.1 5.8 5.6 5.6 5.9 6.3 6.3 6.1 6.1 5.2 5.3 4.9 4.9 5.7 5.7 5.2 5.0 4.8 4.8 4.3 3.6 3.7 3.5 3.7
5.7 5.9 5.9 6.0 6.0 5.9 5.8 5.6 5.9 6.0 5.7 5.4 5.4 6.0 5.8 6.0 6.3 6.4 6.1 5.8 5.7 5.7 5.7 5.8 6.2 6.3 6.2 6.0 5.5 5.4 5.2 4.9 5.8 5.8 5.3 5.1 4.7 4.5 3.8 4.0 3.5 3.6 3.9
5.6 5.8 5.9 5.9 6.0 5.9 5.8 6.0 5.9 6.2 6.1 5.5 5.7 5.6 5.9 5.7 6.2 6.3 6.6 6.3 5.9 5.9 5.8 5.8 5.8 6.3 5.8 5.8 5.4 5.2 5.0 5.1 5.5 5.6 5.3 4.9 4.5 4.4 4.0 3.5 3.5 3.6 3.8
5.7 5.9 6.2 6.2 6.2 6.1 6.0 6.0 6.0 6.0 6.3 6.0 6.0 5.9 6.1 6.3 6.4 6.5 6.4 6.3 5.9 5.7 5.7 5.5 5.4 6.0 5.5 5.7 5.6 5.3 5.1 5.4 5.4 5.5 5.2 4.9 4.6 4.3 4.0 4.0 3.4 3.8 3.8
5.8 5.9 6.2 6.3 6.2 6.2 6.4 6.5 6.3 6.2 6.2 6.2 6.2 6.2 6.2 6.0 6.1 6.1 5.9 6.0 5.7 5.0 5.1 5.1 4.9 5.4 5.4 5.7 5.4 5.3 5.0 5.2 5.4 5.4 5.0 5.0 4.7 4.3 3.8 3.6 3.5 3.8 3.9
5.7 5.9 6.0 6.1 6.2 6.2 6.4 6.3 6.4 6.3 6.3 6.2 6.0 6.1 6.2 5.9 5.8 5.6 5.3 5.0 5.0 4.5 4.7 4.9 5.2 5.1 5.5 5.6 5.3 5.2 5.2 5.0 4.9 4.8 4.9 5.0 4.7 3.8 3.9 3.7 3.8 3.9 4.1
5.9 5.9 6.0 6.0 6.1 6.1 6.1 6.1 6.2 6.4 6.3 6.1 6.1 6.0 5.7 5.5 5.4 5.6 4.9 5.1 5.2 4.6 4.9 4.8 4.8 5.1 5.4 5.4 5.2 5.3 5.2 4.9 4.9 4.9 4.7 4.6 4.3 3.7 4.2 4.0 3.9 4.1 4.0
5.6 5.6 5.5 5.7 5.9 5.7 5.7 5.7 5.5 5.7 5.8 5.8 5.9 5.9 5.8 5.4 5.1 5.0 5.1 5.0 5.0 4.9 5.0 4.9 4.9 5.2 5.0 5.1 5.4 4.9 5.0 5.0 5.0 4.6 4.3 4.3 3.8 4.0 4.2 4.1 3.8 4.1 4.1
Wind_Speed
10 11 9 9 9 8 8 8 8 6 7 7 7 7 7 7 7 6 6 6 6 4 3 5 3 2 3 2 2 2 3 3 4 1 1 0 2 2 4 6 4 3 4
10 9 11 8 8 10 11 9 8 9 7 9 9 8 7 7 7 7 7 6 7 6 6 5 5 3 4 2 2 3 3 3 4 5 1 1 1 1 1 2 6 6 3
11 12 10 9 9 11 10 8 8 8 8 7 7 9 9 8 8 7 7 7 7 6 6 6 6 6 4 2 3 4 3 3 4 4 2 1 2 2 2 3 4 6 12
9 10 10 10 12 10 7 7 7 8 8 9 11 10 10 9 9 8 7 7 6 6 6 6 7 5 5 5 4 6 5 5 4 4 3 2 2 2 3 2 3 4 4
8 9 12 11 9 6 7 8 7 8 9 10 8 7 9 10 8 10 9 8 7 6 5 6 5 7 8 7 4 5 6 4 3 3 2 1 1 2 2 2 2 2 2
6 8 7 6 6 7 7 8 8 7 6 7 8 10 11 9 13 15 13 9 7 7 6 5 4 7 7 8 6 12 12 7 5 4 3 3 2 2 1 1 1 2 2
5 4 5 5 5 6 6 6 7 7 7 10 11 12 13 12 17 20 20 10 10 7 7 6 5 4 7 6 7 7 9 11 12 7 6 5 4 6 5 2 1 1 1
1 1 4 6 6 6 6 8 8 8 11 10 10 11 9 9 16 18 19 11 10 9 9 7 6 6 7 7 6 6 4 6 7 4 6 6 4 9 5 4 5 2 1
2 2 3 4 5 6 6 9 8 7 8 10 8 11 12 8 16 21 16 10 10 12 11 15 9 7 10 11 7 6 5 1 5 9 9 13 15 15 13 5 2 3 1
5 6 4 4 5 6 7 7 5 5 7 6 8 9 9 8 17 19 15 8 8 6 4 8 19 14 14 13 8 7 7 6 4 5 3 5 11 11 13 4 5 2 2
2 2 4 5 6 5 4 3 5 6 5 6 7 7 9 10 14 22 19 10 9 8 8 6 6 15 15 15 10 7 7 7 7 5 4 3 3 4 7 9 10 4 3
3 4 5 5 4 4 6 6 5 5 6 5 6 5 6 9 15 19 20 15 13 10 10 8 7 13 15 16 11 11 9 8 5 5 3 3 4 4 5 11 13 13 10
2 5 6 6 5 4 4 5 4 4 5 5 5 5 5 5 7 17 19 16 15 9 7 9 11 16 15 12 14 12 11 5 6 4 4 4 4 3 5 3 7 10 11
5 6 5 6 5 4 3 3 4 7 6 6 7 8 7 7 7 8 9 9 11 11 7 7 11 13 14 11 7 7 6 6 6 5 4 3 2 3 3 3 3 2 0
6 7 5 5 5 5 4 4 4 5 5 6 7 7 7 8 11 16 16 12 12 11 8 6 5 3 7 7 6 7 5 5 5 4 4 4 3 3 3 3 2 2 3
7 5 5 4 4 4 4 4 6 9 9 8 10 8 8 12 11 19 19 15 14 18 9 8 9 10 9 10 10 9 7 9 5 5 4 4 4 4 3 3 3 3 3
6 7 5 5 4 4 4 5 5 5 9 10 9 10 12 8 14 20 19 19 19 16 11 11 10 11 12 11 10 10 9 8 7 6 6 5 4 4 4 4 3 3 3
7 11 6 5 5 5 6 6 4 4 5 5 7 8 8 10 11 16 20 15 7 11 11 12 11 10 11 11 11 10 8 6 7 7 6 5 5 5 3 4 4 5 4
7 6 6 5 4 3 3 4 5 6 7 8 2 3 5 2 6 8 14 11 11 12 13 13 11 11 10 10 9 8 8 8 8 7 7 5 5 4 4 5 4 6 5
6 8 6 4 4 4 4 5 7 9 9 7 6 5 4 4 3 4 7 10 10 11 12 13 12 10 11 10 9 7 8 7 7 7 5 5 5 6 6 6 5 4 5
4 5 5 4 5 6 6 7 9 8 9 6 7 5 11 6 7 8 9 11 12 12 13 14 11 11 11 11 9 9 9 9 7 8 6 6 5 5 5 5 4 5 4
4 6 6 6 7 6 7 7 8 8 8 8 7 9 12 7 7 7 10 12 13 14 12 13 11 11 12 13 12 10 10 9 8 7 7 6 6 5 5 4 4 4 4
5 6 7 7 7 9 9 9 9 10 9 8 8 9 6 7 7 9 10 11 12 13 11 13 14 13 12 12 11 11 11 10 10 9 8 7 6 5 5 4 5 4 4
5 6 8 9 9 9 10 12 11 12 10 9 9 10 8 7 8 9 10 10 12 12 11 11 10 14 14 14 15 19 18 17 15 13 12 10 7 7 5 4 5 6 5
6 7 9 10 11 12 12 14 13 12 10 9 9 10 6 6 6 8 8 9 10 10 11 12 9 13 17 19 17 22 22 24 21 19 16 8 10 13 8 5 5 4 4
9 10 9 10 11 11 11 11 12 11 9 8 8 8 6 5 6 6 6 7 8 9 11 10 12 15 17 10 13 21 22 26 23 26 19 8 8 7 6 7 9 5 6
Wind_Direction
198 205 200 199 201 196 200 200 199 187 188 182 188 180 178 173 170 160 158 156 155 163 137 131 131 128 102 91 94 116 134 118 126 254 276 17 19 14 352 353 320 257 295
198 208 205 196 194 203 213 205 182 194 189 192 189 184 182 179 167 167 161 160 164 174 168 143 153 149 133 116 124 153 155 160 131 137 141 58 91 324 284 13 24 37 338
209 206 205 206 205 212 215 207 192 190 193 187 180 185 180 178 172 176 169 165 177 181 176 167 169 161 167 161 147 134 118 105 80 119 128 69 47 17 33 352 18 25 59
188 191 200 206 211 214 197 195 198 194 188 190 193 187 181 177 179 170 164 165 170 177 178 178 171 176 165 154 140 133 123 106 101 105 86 93 81 7 65 61 20 22 19
186 192 210 214 212 194 188 195 195 192 198 197 180 182 178 180 180 172 163 166 166 173 181 175 186 170 179 180 148 140 124 108 115 104 98 97 72 41 66 324 56 338 30
201 214 220 210 194 197 198 202 200 197 191 187 187 185 185 189 183 172 166 161 164 169 181 184 180 172 166 179 172 166 163 143 145 140 151 146 181 165 166 100 59 36 348
210 226 228 223 209 201 197 194 199 200 190 198 196 193 197 190 176 172 170 165 166 171 175 168 170 171 163 169 163 165 178 180 171 157 155 177 175 182 143 94 75 105 233
57 219 237 221 220 209 201 204 209 193 201 202 204 211 203 210 181 174 174 170 166 163 163 174 185 176 172 159 152 130 135 148 146 148 152 171 164 155 138 150 165 147 293
319 268 254 221 214 203 208 215 211 205 201 205 201 199 201 200 181 176 168 169 173 183 185 163 181 185 189 165 150 147 137 145 116 131 157 165 161 158 156 125 95 81 332
309 299 260 248 249 226 214 224 194 203 215 198 202 198 198 185 176 177 168 162 171 177 231 240 173 171 176 170 158 160 161 186 154 107 96 143 165 177 178 180 151 142 196
324 299 271 257 254 243 254 228 222 217 210 207 197 182 183 171 176 176 167 169 191 191 195 199 202 181 170 173 164 169 187 157 168 157 162 164 172 190 214 213 197 152 170
232 278 268 257 239 239 234 253 231 204 208 195 185 176 183 176 178 190 180 181 183 185 200 198 186 189 174 171 172 194 183 158 144 152 173 201 207 208 223 222 220 222 224
273 277 267 257 243 231 235 259 256 221 215 208 186 198 194 185 184 191 186 176 194 195 188 178 166 187 177 171 181 188 158 151 152 146 196 218 220 188 154 174 222 237 247
299 283 266 242 260 254 216 213 228 246 235 228 201 196 189 182 182 186 195 191 194 197 165 166 189 190 180 176 167 185 180 168 171 169 189 220 199 143 163 167 175 173 213
288 282 271 227 223 235 224 220 216 231 232 238 224 206 195 195 202 186 185 199 194 192 157 149 156 187 184 173 181 190 192 165 166 167 178 195 199 163 166 139 191 178 193
290 277 257 240 223 226 228 248 261 257 260 238 236 222 211 218 194 185 190 188 181 156 175 187 189 187 195 195 191 192 191 186 188 175 190 184 196 194 186 177 179 183 204
266 274 254 236 234 223 221 225 240 244 249 258 257 232 219 213 187 186 185 180 176 157 192 196 201 195 191 193 195 194 190 192 179 184 192 193 192 206 168 204 186 178 228
275 262 255 244 224 219 227 230 220 229 255 265 232 220 236 223 203 195 182 170 175 208 196 198 202 189 191 197 194 194 186 170 184 186 188 187 193 195 161 213 188 186 201
278 265 250 253 247 255 246 227 226 231 229 246 219 178 206 186 203 190 174 188 196 199 212 208 203 196 191 187 189 187 187 184 184 176 191 179 183 182 198 211 185 179 178
284 281 287 289 282 265 248 259 257 247 249 245 241 223 139 123 158 165 190 207 201 206 211 214 196 189 182 184 170 168 197 184 182 181 181 180 190 194 200 192 184 172 195
303 302 289 282 258 253 247 244 251 249 243 237 244 216 178 186 191 188 192 209 222 216 207 205 199 191 191 184 166 172 190 202 185 183 184 194 188 190 192 183 169 182 164
306 302 301 287 285 274 261 248 248 242 234 239 239 235 191 204 212 210 208 213 218 223 214 200 194 194 187 179 167 170 201 194 187 181 184 183 180 174 162 155 172 176 170
308 297 293 287 282 278 279 270 261 256 238 225 225 236 213 208 217 229 236 227 219 218 209 193 184 185 181 177 165 184 197 199 191 179 179 177 172 170 168 167 171 161 173
298 296 302 301 295 289 280 275 269 254 248 244 245 235 221 208 212 222 234 222 214 209 194 174 175 175 177 174 179 188 196 194 176 181 173 177 176 171 166 160 169 181 168
316 314 306 303 299 293 289 281 269 257 247 244 243 243 218 209 221 233 236 212 201 189 181 168 163 179 173 174 187 187 194 186 178 178 179 174 177 181 175 163 149 154 153
323 317 299 293 289 282 275 276 279 258 242 235 240 236 206 206 216 209 205 186 178 175 171 171 166 175 170 192 194 184 188 190 179 174 171 162 160 162 161 162 166 168 167